Dewpoint
50 52 51 53 53 53 55 55 56 58 63 64 65 66 67 68 69 69 70 70 70 70 70 68 69 70 69 67 68 69 69 69 65 65 65 67 70 72 75 73 76 76 76 76 78 78 77 79 77 77 76 77 77 77 74 75 76 77 78 79 73 74 70 68 68 66 71 72 71 68 70 72 70 73 70 66 58 59 63 65 65 61 63 64 68
52 53 51 54 54 54 55 55 59 58 64 64 66 68 69 68 68 69 70 71 70 69 71 70 72 69 69 69 68 70 70 70 70 68 66 67 74 75 76 74 76 77 77 77 77 77 78 76 77 77 78 78 77 77 76 76 76 77 76 78 77 73 72 64 66 68 72 67 68 65 67 68 67 62 61 58 57 58 55 64 70 62 55 58 61
53 53 53 55 55 55 56 56 56 58 62 63 65 67 69 69 72 72 70 70 70 70 72 73 72 73 70 70 70 69 69 70 67 69 68 67 70 72 75 76 76 76 76 77 76 75 79 79 77 79 77 78 78 78 76 76 78 74 75 75 75 74 72 69 75 74 69 64 73 72 65 65 69 69 63 58 55 53 57 55 55 56 57 61 64
54 55 54 56 56 58 56 58 57 58 63 63 65 67 68 72 72 73 72 71 72 72 73 71 72 74 76 74 75 72 69 73 74 73 71 69 69 69 75 76 75 73 73 73 74 76 76 77 76 77 78 78 79 78 77 77 76 78 75 75 76 72 69 68 67 73 71 71 68 67 66 65 71 69 66 63 56 53 51 48 47 52 53 59 65
55 55 56 56 57 58 58 60 57 58 61 63 64 65 68 69 72 73 73 72 72 73 73 75 76 76 77 77 76 75 73 72 72 71 69 71 69 71 73 75 75 73 72 72 73 77 78 78 77 79 79 79 78 78 78 75 74 75 76 77 74 75 70 70 73 67 71 77 74 72 66 68 66 62 57 72 57 55 49 47 63 53 53 67 69
56 56 56 56 57 59 58 59 57 58 61 62 64 64 69 69 72 74 74 73 71 72 75 76 76 76 76 75 75 73 75 72 71 71 68 68 67 69 72 71 71 72 73 74 73 75 77 76 76 76 77 78 79 77 75 75 75 75 75 74 75 75 74 73 64 74 68 75 75 77 73 71 72 69 66 72 74 59 57 48 56 55 51 61 68
56 56 57 56 58 59 58 59 58 58 60 61 63 64 69 70 72 73 74 74 72 75 76 77 75 75 74 72 73 72 72 73 77 72 73 69 70 70 71 72 74 70 70 73 74 76 77 77 77 77 78 77 77 78 77 73 71 71 74 77 76 76 77 76 72 67 75 72 64 64 67 71 68 73 73 67 66 69 62 59 47 57 52 53 57
57 57 58 58 59 59 59 59 58 59 60 61 62 63 70 73 73 75 75 75 74 75 76 76 75 75 74 73 72 72 68 73 74 75 72 78 77 70 70 71 73 74 72 76 75 75 76 77 78 78 78 75 76 78 77 74 76 76 76 77 81 80 78 76 74 72 73 76 69 67 70 70 68 67 67 68 70 68 70 65 56 59 59 59 63
59 59 58 58 60 60 60 60 59 61 61 61 62 64 69 71 74 74 75 76 75 75 75 75 76 75 74 71 73 73 75 74 75 74 75 75 74 75 73 71 74 76 74 73 75 75 77 78 78 78 76 76 77 75 75 73 73 75 79 80 79 77 79 79 79 76 70 68 73 74 71 71 65 62 64 66 72 72 67 63 68 59 58 58 58
60 58 59 59 60 60 61 61 61 61 61 62 62 64 67 70 73 74 75 76 75 75 75 75 75 75 75 73 73 73 73 75 75 75 76 75 74 75 76 78 72 76 73 75 76 75 76 78 76 75 77 74 75 77 73 74 75 77 77 76 78 78 79 78 77 76 75 73 72 76 79 75 71 67 66 65 63 71 72 66 61 59 64 65 65
58 58 58 59 60 61 62 61 62 62 63 63 62 65 67 69 71 73 75 76 76 75 75 75 74 74 74 73 72 72 73 74 74 76 76 76 76 75 76 77 75 75 72 74 74 72 75 78 76 74 75 77 78 76 76 74 72 72 71 77 78 78 79 80 74 76 74 81 68 79 78 68 71 67 72 71 68 68 67 63 63 65 62 66 67
59 59 59 59 61 61 62 63 62 62 61 62 63 66 70 69 70 73 74 76 76 74 74 73 73 74 73 73 73 73 73 72 74 74 75 74 74 74 78 78 76 75 76 74 72 71 75 76 75 74 78 77 78 78 76 75 75 74 75 78 79 77 78 79 75 75 71 77 70 68 69 62 71 65 60 73 69 69 72 67 69 68 67 59 65
59 60 59 58 58 59 60 62 64 65 64 63 62 65 68 69 71 72 74 75 76 74 74 74 74 74 73 73 74 75 74 73 74 74 74 74 74 74 76 75 76 75 75 72 72 71 76 77 76 78 79 77 78 78 78 77 78 78 78 75 79 78 80 79 80 74 71 72 69 69 69 66 68 67 65 61 70 72 72 70 63 62 71 65 67
59 58 57 60 60 58 62 63 63 62 61 61 62 65 68 68 71 71 73 74 75 75 74 74 74 74 74 74 73 75 75 73 73 71 71 75 76 75 74 72 74 74 71 76 74 71 74 76 76 77 79 79 80 79 78 78 78 79 77 77 73 79 79 79 78 73 74 72 71 70 68 70 69 67 68 67 65 65 69 66 71 72 64 64 68
68 59 58 59 60 62 62 64 62 61 60 61 61 66 68 69 72 73 73 74 74 74 74 73 73 73 74 73 74 73 72 74 75 74 75 73 71 73 76 73 72 72 73 76 77 75 74 76 77 77 78 79 79 79 76 78 80 79 80 79 77 76 78 77 75 72 70 70 71 73 73 71 70 76 69 68 72 73 70 73 75 71 67 66 67
68 64 58 60 61 62 62 63 62 61 64 62 62 66 66 69 72 72 72 73 73 74 74 73 73 73 74 74 74 74 75 72 75 76 77 74 74 74 75 77 74 80 77 75 74 74 75 75 76 75 79 76 78 78 77 77 78 78 79 78 77 72 75 75 77 74 72 72 70 73 75 69 70 68 71 72 76 76 74 74 75 76 73 70 70
67 68 62 61 59 62 62 62 60 60 60 62 67 66 68 69 69 72 73 72 72 74 72 73 73 73 74 73 72 73 71 70 69 70 70 73 74 73 72 72 73 77 73 73 73 77 76 76 75 72 77 78 77 78 76 78 78 76 76 78 76 73 79 77 76 75 76 71 70 70 74 75 73 77 73 72 76 78 76 77 74 74 76 73 72
67 69 71 63 61 62 62 60 61 62 60 62 68 65 69 68 69 70 71 72 71 71 71 72 73 72 73 73 73 72 70 69 69 70 69 71 73 75 72 73 72 71 71 70 73 73 76 76 76 76 76 76 76 74 76 77 79 78 76 78 75 78 77 78 78 75 74 75 73 70 71 74 72 71 70 70 77 76 74 72 77 74 78 75 74
67 68 68 68 62 62 64 62 64 66 66 64 65 65 65 66 67 67 69 69 69 69 70 71 71 70 70 71 70 71 70 70 70 73 72 71 69 70 71 73 71 74 75 78 76 73 75 75 77 74 76 75 75 75 77 77 77 77 76 76 76 79 78 77 78 76 73 73 77 74 77 77 76 74 74 70 74 74 77 77 80 77 79 79 76
67 67 69 69 71 64 63 64 66 66 67 66 66 64 63 65 66 66 69 70 69 68 69 69 70 70 69 71 72 73 73 72 72 72 70 70 71 70 70 71 72 71 72 73 73 72 73 72 72 71 72 72 73 73 73 76 77 76 74 72 73 77 77 77 74 73 71 72 76 74 77 76 75 77 74 74 76 76 73 76 76 77 76 77 76
66 68 69 68 68 68 68 65 68 68 67 67 66 67 68 69 68 69 71 71 68 66 67 69 69 69 70 70 69 70 69 69 67 71 70 71 71 72 68 69 72 72 71 73 73 73 73 73 71 73 70 74 76 75 74 77 77 77 77 77 77 76 76 75 76 75 71 73 77 76 77 76 78 75 76 72 72 73 77 76 75 79 75 76 75
65 66 67 66 67 68 68 71 68 68 67 67 69 74 74 74 69 69 71 70 69 65 68 70 69 68 67 68 69 69 69 69 67 66 68 68 69 71 70 71 69 71 71 70 72 71 73 73 71 71 73 73 75 77 71 74 75 76 74 71 72 77 77 76 76 76 75 72 75 77 76 74 76 74 72 69 69 68 69 69 75 74 78 76 76
64 65 66 67 66 67 67 69 69 68 68 70 72 73 73 72 72 73 71 70 67 65 69 69 69 67 68 67 67 68 68 68 66 65 65 65 67 68 70 70 68 69 70 71 71 70 75 75 74 74 76 74 75 73 73 74 75 75 74 71 71 75 76 74 73 74 73 75 74 76 73 73 69 71 73 70 67 68 73 73 70 72 74 74 76
66 68 69 67 66 68 68 69 69 70 72 74 75 75 75 75 75 73 72 71 68 69 68 71 71 70 65 65 67 67 66 66 65 65 64 65 65 66 69 70 69 68 68 72 72 72 76 76 74 75 74 75 74 73 72 72 74 75 74 75 76 75 74 74 73 72 71 73 72 74 71 71 72 75 77 77 75 74 74 80 74 78 76 76 77
70 70 71 71 71 71 72 72 73 73 74 74 73 74 73 73 73 74 74 73 73 72 73 71 70 69 69 65 63 64 65 65 64 63 63 63 63 64 68 69 69 68 69 70 72 72 75 75 72 72 73 75 73 75 74 71 72 72 73 72 74 75 74 74 74 74 73 75 74 72 72 73 74 74 75 73 71 73 73 75 75 73 76 77 78
68 68 69 69 72 73 72 73 74 72 71 72 72 73 73 72 73 74 73 75 75 75 74 68 72 72 73 72 66 64 64 64 64 63 62 62 62 63 64 67 68 70 70 69 70 70 72 73 73 73 73 74 76 75 75 74 71 71 73 73 74 75 73 74 73 72 73 73 72 74 74 73 74 72 71 73 76 76 75 73 73 75 75 76 77
67 68 69 70 70 69 70 72 74 73 73 73 74 73 73 72 73 73 74 73 73 75 75 74 75 72 71 71 68 69 67 64 65 64 63 63 62 62 62 65 68 69 69 68 69 70 71 70 73 73 72 75 75 73 76 76 74 74 74 73 71 74 74 74 73 72 71 71 70 70 72 72 72 73 71 71 73 72 70 73 76 76 76 75 74
69 68 68 69 69 69 70 71 73 73 74 75 75 74 72 73 73 73 73 72 73 75 75 75 75 74 73 69 68 67 66 71 72 73 70 64 62 62 63 65 69 68 68 68 68 68 68 70 71 72 73 73 74 73 75 76 74 73 73 73 74 73 74 73 72 73 72 71 71 70 69 69 71 73 72 73 74 73 76 73 72 76 77 77 76
66 67 68 68 69 69 69 69 71 72 72 72 73 73 74 74 74 73 73 74 76 77 76 76 76 75 75 76 75 74 74 75 75 76 77 73 69 66 67 70 70 67 66 67 67 67 67 69 69 72 72 72 71 72 73 73 73 73 72 72 73 73 73 73 72 71 71 72 71 69 67 67 72 74 72 73 75 77 72 77 78 77 77 76 76
66 67 66 67 67 69 68 68 70 70 70 69 69 70 71 72 72 72 73 73 74 76 75 76 76 76 77 76 76 76 77 78 77 76 75 75 72 71 67 66 68 68 70 73 72 70 67 67 68 71 71 70 69 70 74 74 74 74 74 71 71 74 74 75 75 73 71 70 69 68 67 70 69 70 70 75 76 75 76 71 75 76 78 77 77
65 65 66 67 68 68 69 69 69 69 68 68 70 70 70 70 71 71 72 72 72 73 73 73 74 75 76 76 75 76 76 76 75 76 77 77 77 76 75 74 73 73 74 74 73 72 67 69 68 68 69 69 68 68 71 68 69 72 73 74 74 75 75 75 73 74 75 72 70 69 67 68 74 76 78 78 76 75 76 76 75 76 76 76 74
65 66 66 65 66 67 67 68 69 69 70 70 70 70 69 70 71 71 72 73 74 73 72 72 72 73 74 74 75 75 74 74 73 73 74 75 75 75 76 75 74 73 74 72 71 70 71 70 68 68 67 67 68 72 65 65 67 68 73 73 70 69 68 71 72 71 72 71 69 67 65 62 73 73 75 77 76 75 74 75 75 75 75 75 75
66 65 65 66 66 65 66 66 67 68 68 70 71 71 71 72 72 72 72 73 73 73 73 72 73 73 73 73 74 73 73 73 72 72 72 72 73 73 73 74 74 74 75 73 73 72 72 73 71 70 67 66 68 68 64 64 65 65 67 73 67 66 64 64 69 72 71 71 74 75 72 68 65 68 71 73 77 76 76 73 74 75 75 74 70
64 65 65 65 65 66 67 67 67 68 69 69 70 71 69 69 70 71 72 72 72 72 73 72 72 72 73 73 73 73 72 72 73 73 73 71 70 72 73 76 76 76 74 73 72 73 73 73 72 72 73 71 69 65 62 62 63 64 66 70 69 65 65 65 69 68 65 70 75 72 72 72 73 75 75 75 75 78 77 76 76 76 75 75 75
63 63 63 65 66 67 67 66 67 68 68 68 68 68 68 68 69 69 70 69 69 69 70 71 71 71 72 73 72 73 72 72 73 73 74 74 74 75 73 75 76 75 74 74 75 74 73 72 71 70 70 68 68 63 62 62 63 64 66 71 71 67 67 69 69 70 73 70 71 70 73 72 74 76 77 78 76 73 75 74 77 76 76 76 76
62 62 62 62 64 64 64 65 67 67 67 66 66 67 67 67 67 67 68 67 68 69 69 69 68 69 70 71 71 71 71 71 71 72 72 72 72 72 72 73 75 75 75 75 75 74 73 72 73 72 70 69 67 61 61 61 60 61 65 71 73 74 72 70 69 70 71 74 73 72 72 73 74 76 74 71 75 78 77 76 75 75 74 72 70
60 60 61 62 62 62 61 62 63 62 63 64 64 65 65 65 65 66 66 67 67 67 68 69 69 69 70 71 71 70 69 69 70 70 70 71 71 71 72 73 73 73 74 74 74 72 73 72 72 72 73 72 70 62 59 58 59 61 68 72 73 73 73 72 71 73 75 72 73 75 74 73 74 74 70 62 65 76 77 74 76 74 73 72 71
55 53 51 59 62 60 60 61 61 61 62 64 64 65 65 63 63 63 63 63 64 65 66 67 68 69 70 71 70 70 70 70 70 70 70 70 71 71 71 73 73 73 73 73 74 74 73 73 72 72 72 71 70 62 57 57 58 60 67 72 75 76 74 74 74 74 74 74 73 75 74 72 73 72 61 61 63 73 74 75 74 73 72 71 71
52 51 49 48 50 52 51 54 55 55 58 61 63 64 62 61 62 61 61 61 64 64 66 66 65 67 69 70 69 69 70 69 69 69 69 70 71 71 72 72 72 72 73 73 73 73 72 73 72 72 72 71 68 64 56 56 57 59 67 73 76 75 74 74 74 74 73 74 74 74 74 72 70 66 58 59 62 71 71 72 73 72 71 71 71
48 48 48 49 52 50 50 50 51 53 54 55 54 55 59 58 57 58 59 60 62 63 64 64 64 65 67 68 68 69 68 68 68 68 69 70 70 71 71 72 72 72 72 72 71 72 72 72 72 72 72 69 67 65 62 55 56 57 60 71 76 74 73 73 73 73 73 72 73 73 70 62 60 59 57 56 57 60 70 71 72 71 71 71 70
48 48 53 49 49 49 48 50 53 54 54 56 56 54 55 57 57 57 57 59 61 63 64 65 65 63 63 65 67 67 67 68 68 69 69 69 70 70 71 70 70 70 71 70 69 69 69 70 71 70 69 68 67 65 63 55 55 56 58 66 71 68 70 72 72 73 72 71 72 73 73 63 58 58 56 55 54 57 63 70 71 72 72 69 67
48 51 50 47 47 49 49 49 51 52 53 53 55 56 57 56 55 54 55 56 58 61 62 62 64 64 64 64 64 68 67 66 68 69 69 69 70 71 70 69 69 69 68 69 69 69 68 69 70 69 69 69 69 68 67 58 56 55 56 60 67 67 66 70 72 71 72 71 72 71 72 65 58 58 57 54 53 55 59 67 70 63 59 61 68
53 51 48 46 47 49 49 49 49 51 53 54 55 56 56 55 55 56 55 56 56 56 58 59 62 63 63 64 65 65 64 64 65 67 68 69 70 70 70 71 71 70 70 68 68 69 69 69 68 69 68 68 68 68 66 65 58 55 55 56 58 64 61 69 68 70 72 72 72 71 72 67 58 56 54 54 53 54 59 64 60 60 59 60 66
53 55 55 54 52 50 50 50 51 52 52 52 54 56 56 56 56 57 57 57 58 58 59 58 58 60 60 63 63 63 64 65 66 67 68 68 68 68 70 71 70 69 69 68 69 67 67 67 66 67 67 67 67 67 66 66 64 58 56 55 57 56 59 65 67 69 71 70 69 68 67 58 53 50 50 51 53 57 62 58 57 57 59 63 66
50 53 56 56 54 54 54 54 54 53 54 55 53 54 55 55 56 59 59 59 58 58 57 55 56 56 58 58 60 62 63 64 63 65 66 68 66 67 66 65 66 66 68 68 69 68 68 68 67 67 67 66 66 66 66 67 65 62 58 57 59 57 59 58 67 67 66 67 64 57 54 54 54 53 53 53 57 60 56 55 55 56 65 67 69
47 50 51 53 55 55 53 51 54 54 55 56 54 55 58 58 58 57 56 59 59 57 58 58 56 54 54 55 57 59 60 56 60 60 62 64 63 62 66 67 66 67 67 67 66 65 66 67 67 67 66 66 67 66 66 64 64 66 63 59 58 59 68 71 69 66 66 61 58 56 55 54 57 59 66 69 70 71 67 63 61 64 67 67 69
49 53 53 52 53 54 55 55 55 58 57 56 55 52 57 59 57 52 52 57 57 58 59 58 58 53 54 55 53 54 59 58 58 64 59 58 65 62 60 59 58 56 58 61 61 63 65 62 63 63 64 65 63 61 61 62 62 62 62 62 67 69 70 68 68 64 63 61 63 67 66 63 62 62 63 63 64 65 67 69 70 70 68 68 70
53 55 54 54 54 54 54 53 55 57 57 58 57 57 58 57 58 57 56 57 57 55 54 54 52 51 52 52 49 53 56 52 54 57 52 50 54 58 58 52 50 50 52 54 56 59 58 59 59 62 63 62 60 59 57 57 58 57 58 60 61 62 61 63 61 59 59 61 63 65 63 67 67 67 67 67 67 68 68 68 68 65 61 64 66
54 53 53 53 53 53 52 53 54 53 55 56 56 56 57 58 57 57 59 60 59 59 57 56 55 57 64 59 57 54 53 54 54 57 54 54 53 52 55 54 55 56 53 50 53 53 56 58 59 59 61 61 59 57 56 51 53 48 52 56 58 58 57 58 58 52 57 61 63 61 62 61 65 67 67 67 66 70 69 67 62 62 59 63 63
54 54 55 55 56 56 55 54 53 50 49 51 54 55 55 55 57 59 59 59 57 56 54 54 53 50 52 54 54 51 53 54 51 53 51 53 55 50 54 53 53 55 48 47 51 56 56 59 60 57 58 56 55 56 49 45 43 43 43 43 43 41 41 49 51 49 53 58 62 62 63 63 66 64 62 64 59 59 63 59 60 59 61 59 59
55 54 55 56 55 55 55 55 54 53 51 51 51 51 52 54 55 56 56 58 58 58 55 52 53 52 54 55 51 52 56 59 56 54 56 55 52 55 45 45 51 51 46 41 41 42 46 50 60 54 52 51 50 46 43 43 43 43 42 41 41 41 40 40 42 53 61 63 62 61 62 65 66 63 62 62 62 63 59 59 57 62 62 60 59